Time,TemperatureF,DewpointF,PressureIn,WindDirection,WindDirectionDegrees,WindSpeedMPH,WindSpeedGustMPH,Humidity,HourlyPrecipIn,Conditions,Clouds,dailyrainin,SolarRadiationWatts/m^2,SoftwareType,DateUTC
2013-01-09 00:22:00,10.0,7.0,-100.00,East,93,1.0,3.0,87,0.00,,,0.00,0.000000,,2013-01-09 09:22:00,
2013-01-09 00:32:00,10.0,7.0,-100.00,East,93,1.0,3.0,87,0.00,,,0.00,0.000000,,2013-01-09 09:32:00,
2013-01-09 00:42:00,10.0,7.0,-100.00,East,93,1.0,3.0,87,0.00,,,0.00,0.000000,,2013-01-09 09:42:00,
2013-01-09 00:53:00,10.0,7.0,-100.00,East,93,1.0,3.0,87,0.00,,,0.00,0.000000,,2013-01-09 09:53:00,
2013-01-09 01:22:00,10.0,7.0,-100.00,ESE,102,1.0,2.0,86,0.00,,,0.00,0.000000,,2013-01-09 10:22:00,
2013-01-09 01:32:00,10.0,7.0,-100.00,ESE,102,1.0,2.0,86,0.00,,,0.00,0.000000,,2013-01-09 10:32:00,
2013-01-09 01:42:00,10.0,7.0,-100.00,ESE,102,1.0,2.0,86,0.00,,,0.00,0.000000,,2013-01-09 10:42:00,
2013-01-09 01:52:00,10.0,7.0,-100.00,ESE,102,1.0,2.0,86,0.00,,,0.00,0.000000,,2013-01-09 10:52:00,
2013-01-09 02:22:00,9.0,6.0,-100.00,East,99,1.0,2.0,86,0.00,,,0.00,0.000000,,2013-01-09 11:22:00,
2013-01-09 02:32:00,9.0,6.0,-100.00,East,99,1.0,2.0,86,0.00,,,0.00,0.000000,,2013-01-09 11:32:00,
2013-01-09 02:42:00,9.0,6.0,-100.00,East,99,1.0,2.0,86,0.00,,,0.00,0.000000,,2013-01-09 11:42:00,
2013-01-09 02:52:00,9.0,6.0,-100.00,East,99,1.0,2.0,86,0.00,,,0.00,0.000000,,2013-01-09 11:52:00,
2013-01-09 03:22:00,8.0,4.0,-100.00,East,99,1.0,1.0,84,0.00,,,0.00,0.000000,,2013-01-09 12:22:00,
2013-01-09 03:33:00,8.0,4.0,-100.00,East,99,1.0,1.0,84,0.00,,,0.00,0.000000,,2013-01-09 12:33:00,
2013-01-09 03:42:00,8.0,4.0,-100.00,East,99,1.0,1.0,84,0.00,,,0.00,0.000000,,2013-01-09 12:42:00,
2013-01-09 03:52:00,8.0,4.0,-100.00,East,99,1.0,1.0,84,0.00,,,0.00,0.000000,,2013-01-09 12:52:00,
2013-01-09 04:22:00,9.0,5.0,-100.00,East,100,0.0,2.0,85,0.00,,,0.00,0.000000,,2013-01-09 13:22:00,
2013-01-09 04:32:00,9.0,5.0,-100.00,East,100,0.0,2.0,85,0.00,,,0.00,0.000000,,2013-01-09 13:32:00,
2013-01-09 04:42:00,9.0,5.0,-100.00,East,100,0.0,2.0,85,0.00,,,0.00,0.000000,,2013-01-09 13:42:00,
2013-01-09 04:52:00,9.0,5.0,-100.00,East,100,0.0,2.0,85,0.00,,,0.00,0.000000,,2013-01-09 13:52:00,
2013-01-09 05:12:00,8.0,4.0,-100.00,ESE,105,1.0,2.0,84,-99.99,,,-99.99,,,2013-01-09 14:12:00,
2013-01-09 05:22:00,8.0,4.0,-100.00,ESE,105,1.0,2.0,84,0.00,,,0.00,0.000000,,2013-01-09 14:22:00,
2013-01-09 05:33:00,8.0,4.0,-100.00,ESE,105,1.0,2.0,84,0.00,,,0.00,0.000000,,2013-01-09 14:33:00,
2013-01-09 05:43:00,8.0,4.0,-100.00,ESE,105,1.0,2.0,84,0.00,,,0.00,0.000000,,2013-01-09 14:43:00,
2013-01-09 05:52:00,8.0,4.0,-100.00,ESE,105,1.0,2.0,84,0.00,,,0.00,0.000000,,2013-01-09 14:52:00,
2013-01-09 06:22:00,7.0,3.0,-100.00,East,99,0.0,2.0,83,0.00,,,0.00,0.000000,,2013-01-09 15:22:00,
2013-01-09 06:33:00,7.0,3.0,-100.00,East,99,0.0,2.0,83,0.00,,,0.00,0.000000,,2013-01-09 15:33:00,
2013-01-09 06:42:00,7.0,3.0,-100.00,East,99,0.0,2.0,83,0.00,,,0.00,0.000000,,2013-01-09 15:42:00,
2013-01-09 06:52:00,7.0,3.0,-100.00,East,99,0.0,2.0,83,0.00,,,0.00,0.000000,,2013-01-09 15:52:00,
2013-01-09 08:22:00,5.0,0.0,-100.00,East,97,0.0,0.0,81,0.00,,,0.00,0.000000,,2013-01-09 17:22:00,
2013-01-09 09:23:00,8.0,4.0,-100.00,ESE,115,0.0,0.0,85,-99.99,,,0.00,0.000000,,2013-01-09 18:23:00,
2013-01-09 09:33:00,8.0,4.0,-100.00,ESE,115,0.0,0.0,85,-99.99,,,0.00,0.000000,,2013-01-09 18:33:00,
2013-01-09 10:22:00,11.0,8.0,-100.00,SE,127,0.0,0.0,86,-99.99,,,0.00,0.000000,,2013-01-09 19:22:00,
2013-01-09 10:33:00,11.0,8.0,-100.00,SE,127,0.0,0.0,86,-99.99,,,0.00,0.000000,,2013-01-09 19:33:00,
2013-01-09 10:43:00,11.0,8.0,-100.00,SE,127,0.0,0.0,86,-99.99,,,0.00,0.000000,,2013-01-09 19:43:00,
2013-01-09 10:52:00,11.0,8.0,-100.00,SE,127,0.0,0.0,86,-99.99,,,0.00,0.000000,,2013-01-09 19:52:00,
2013-01-09 11:22:00,11.0,7.0,-100.00,SE,127,0.0,0.0,85,0.00,,,0.00,5.000000,,2013-01-09 20:22:00,
2013-01-09 11:33:00,11.0,7.0,-100.00,SE,127,0.0,0.0,85,0.00,,,0.00,5.000000,,2013-01-09 20:33:00,
2013-01-09 11:42:00,11.0,7.0,-100.00,SE,127,0.0,0.0,85,0.00,,,0.00,5.000000,,2013-01-09 20:42:00,
2013-01-09 11:52:00,11.0,7.0,-100.00,SE,127,0.0,0.0,85,0.00,,,0.00,5.000000,,2013-01-09 20:52:00,
2013-01-09 12:22:00,10.0,6.0,-100.00,East,100,1.0,2.0,84,0.00,,,0.00,19.000000,,2013-01-09 21:22:00,
2013-01-09 12:33:00,10.0,6.0,-100.00,East,100,1.0,2.0,84,0.00,,,0.00,19.000000,,2013-01-09 21:33:00,
2013-01-09 12:42:00,10.0,6.0,-100.00,East,100,1.0,2.0,84,0.00,,,0.00,19.000000,,2013-01-09 21:42:00,
2013-01-09 12:52:00,10.0,6.0,-100.00,East,100,1.0,2.0,84,0.00,,,0.00,19.000000,,2013-01-09 21:52:00,
2013-01-09 13:22:00,10.0,6.0,-100.00,SE,137,0.0,2.0,84,0.00,,,0.00,25.000000,,2013-01-09 22:22:00,
2013-01-09 13:33:00,10.0,6.0,-100.00,SE,137,0.0,2.0,84,0.00,,,0.00,25.000000,,2013-01-09 22:33:00,
2013-01-09 13:42:00,10.0,6.0,-100.00,SE,137,0.0,2.0,84,0.00,,,0.00,25.000000,,2013-01-09 22:42:00,
2013-01-09 13:52:00,10.0,6.0,-100.00,SE,137,0.0,2.0,84,0.00,,,0.00,25.000000,,2013-01-09 22:52:00,
2013-01-09 14:12:00,11.0,7.0,-100.00,SSW,203,0.0,1.0,84,-99.99,,,-99.99,,,2013-01-09 23:12:00,
2013-01-09 14:22:00,11.0,7.0,-100.00,SSW,203,0.0,1.0,84,0.00,,,0.00,24.000000,,2013-01-09 23:22:00,
2013-01-09 14:32:00,11.0,7.0,-100.00,SSW,203,0.0,1.0,84,0.00,,,0.00,24.000000,,2013-01-09 23:32:00,
2013-01-09 14:42:00,11.0,7.0,-100.00,SSW,203,0.0,1.0,84,0.00,,,0.00,24.000000,,2013-01-09 23:42:00,
2013-01-09 14:52:00,11.0,7.0,-100.00,SSW,203,0.0,1.0,84,0.00,,,0.00,24.000000,,2013-01-09 23:52:00,
2013-01-09 15:22:00,12.0,9.0,-100.00,SW,227,0.0,0.0,86,0.00,,,0.00,21.000000,,2013-01-10 00:22:00,
2013-01-09 15:32:00,12.0,9.0,-100.00,SW,227,0.0,0.0,86,0.00,,,0.00,21.000000,,2013-01-10 00:32:00,
2013-01-09 15:42:00,12.0,9.0,-100.00,SW,227,0.0,0.0,86,0.00,,,0.00,21.000000,,2013-01-10 00:42:00,
2013-01-09 15:52:00,12.0,9.0,-100.00,SW,227,0.0,0.0,86,0.00,,,0.00,21.000000,,2013-01-10 00:52:00,
2013-01-09 16:22:00,13.0,10.0,-100.00,North,3,1.0,2.0,87,0.00,,,0.00,8.000000,,2013-01-10 01:22:00,
2013-01-09 16:32:00,13.0,10.0,-100.00,North,3,1.0,2.0,87,0.00,,,0.00,8.000000,,2013-01-10 01:32:00,
2013-01-09 16:42:00,13.0,10.0,-100.00,North,3,1.0,2.0,87,0.00,,,0.00,8.000000,,2013-01-10 01:42:00,
2013-01-09 16:52:00,13.0,10.0,-100.00,North,3,1.0,2.0,87,0.00,,,0.00,8.000000,,2013-01-10 01:52:00,
2013-01-09 17:22:00,14.0,11.0,-100.00,ESE,123,1.0,2.0,87,0.00,,,0.00,0.000000,,2013-01-10 02:22:00,
2013-01-09 17:32:00,14.0,11.0,-100.00,ESE,123,1.0,2.0,87,0.00,,,0.00,0.000000,,2013-01-10 02:32:00,
2013-01-09 17:42:00,14.0,11.0,-100.00,ESE,123,1.0,2.0,87,0.00,,,0.00,0.000000,,2013-01-10 02:42:00,
2013-01-09 17:52:00,14.0,11.0,-100.00,ESE,123,1.0,2.0,87,0.00,,,0.00,0.000000,,2013-01-10 02:52:00,
2013-01-09 18:22:00,14.0,11.0,-100.00,West,260,1.0,2.0,87,0.00,,,0.00,0.000000,,2013-01-10 03:22:00,
2013-01-09 18:32:00,14.0,11.0,-100.00,West,260,1.0,2.0,87,0.00,,,0.00,0.000000,,2013-01-10 03:32:00,
2013-01-09 18:42:00,14.0,11.0,-100.00,West,260,1.0,2.0,87,0.00,,,0.00,0.000000,,2013-01-10 03:42:00,
2013-01-09 18:52:00,14.0,11.0,-100.00,West,260,1.0,2.0,87,0.00,,,0.00,0.000000,,2013-01-10 03:52:00,
2013-01-09 19:22:00,15.0,12.0,-100.00,SW,232,1.0,2.0,88,0.00,,,0.00,0.000000,,2013-01-10 04:22:00,
2013-01-09 19:32:00,15.0,12.0,-100.00,SW,232,1.0,2.0,88,0.00,,,0.00,0.000000,,2013-01-10 04:32:00,
2013-01-09 19:42:00,15.0,12.0,-100.00,SW,232,1.0,2.0,88,0.00,,,0.00,0.000000,,2013-01-10 04:42:00,
2013-01-09 19:52:00,15.0,12.0,-100.00,SW,232,1.0,2.0,88,0.00,,,0.00,0.000000,,2013-01-10 04:52:00,
2013-01-09 20:22:00,15.0,12.0,-100.00,WNW,292,1.0,2.0,88,0.00,,,0.00,0.000000,,2013-01-10 05:22:00,
2013-01-09 20:33:00,15.0,12.0,-100.00,WNW,292,1.0,2.0,88,0.00,,,0.00,0.000000,,2013-01-10 05:33:00,
2013-01-09 20:42:00,15.0,12.0,-100.00,WNW,292,1.0,2.0,88,0.00,,,0.00,0.000000,,2013-01-10 05:42:00,
2013-01-09 20:52:00,15.0,12.0,-100.00,WNW,292,1.0,2.0,88,0.00,,,0.00,0.000000,,2013-01-10 05:52:00,
2013-01-09 21:22:00,15.0,12.0,-100.00,SW,235,1.0,2.0,87,0.00,,,0.00,0.000000,,2013-01-10 06:22:00,
2013-01-09 21:32:00,15.0,12.0,-100.00,SW,235,1.0,2.0,87,0.00,,,0.00,0.000000,,2013-01-10 06:32:00,
2013-01-09 21:42:00,15.0,12.0,-100.00,SW,235,1.0,2.0,87,0.00,,,0.00,0.000000,,2013-01-10 06:42:00,
2013-01-09 21:52:00,15.0,12.0,-100.00,SW,235,1.0,2.0,87,0.00,,,0.00,0.000000,,2013-01-10 06:52:00,
2013-01-09 22:22:00,14.0,11.0,-100.00,ESE,106,1.0,2.0,87,0.00,,,0.00,0.000000,,2013-01-10 07:22:00,
2013-01-09 22:32:00,14.0,11.0,-100.00,ESE,106,1.0,2.0,87,0.00,,,0.00,0.000000,,2013-01-10 07:32:00,
2013-01-09 22:42:00,14.0,11.0,-100.00,ESE,106,1.0,2.0,87,0.00,,,0.00,0.000000,,2013-01-10 07:42:00,
2013-01-09 22:52:00,14.0,11.0,-100.00,ESE,106,1.0,2.0,87,0.00,,,0.00,0.000000,,2013-01-10 07:52:00,
2013-01-09 23:22:00,15.0,12.0,-100.00,NNW,348,1.0,2.0,87,0.00,,,0.00,0.000000,,2013-01-10 08:22:00,
2013-01-09 23:32:00,15.0,12.0,-100.00,NNW,348,1.0,2.0,87,0.00,,,0.00,0.000000,,2013-01-10 08:32:00,
2013-01-09 23:42:00,15.0,12.0,-100.00,NNW,348,1.0,2.0,87,0.00,,,0.00,0.000000,,2013-01-10 08:42:00,
2013-01-09 23:52:00,15.0,12.0,-100.00,NNW,348,1.0,2.0,87,0.00,,,0.00,0.000000,,2013-01-10 08:52:00,